CAPE
0 0 0 0 0 0 0 0 0 0 0 1 255 367 365 333 170 410 254 156 92 77 167 57 40 31 23 4 60 325 328 176 104 239 424 408 604 754 969 804 764 1073 1021 456
0 0 0 0 0 0 0 0 0 0 0 66 412 436 302 206 343 371 401 241 142 111 149 202 89 75 35 0 0 0 236 160 190 263 154 372 468 734 969 821 1056 1040 892 241
0 0 0 0 0 0 0 0 0 0 4 290 280 287 250 127 292 437 514 277 173 126 90 219 197 118 70 28 34 0 130 151 303 215 282 358 369 398 907 889 983 1198 1213 812
0 0 0 0 0 0 0 0 0 0 0 0 151 129 191 127 165 399 414 97 91 146 104 252 183 159 132 53 48 39 237 176 383 211 305 452 726 507 408 407 477 1052 1398 1015
0 0 0 0 0 0 0 0 0 0 0 0 13 0 1 60 149 268 457 148 229 183 196 260 239 133 135 145 78 260 304 236 437 351 159 399 324 688 441 390 630 872 1163 1261
0 0 0 0 0 0 0 0 0 0 0 0 0 0 0 48 82 83 460 397 283 169 202 252 338 266 170 123 117 394 324 268 407 352 199 101 329 267 488 534 888 1097 1002 1296
0 0 0 0 0 0 0 0 0 0 0 0 0 0 0 12 151 131 222 370 237 329 291 247 297 322 233 149 109 177 354 260 306 426 337 56 126 225 494 641 881 970 1277 1298
0 0 0 0 0 0 0 0 0 0 0 0 0 0 0 0 129 187 189 199 267 294 397 285 256 302 285 191 167 135 344 245 208 410 494 465 111 122 213 728 785 940 1144 1450
0 0 0 0 0 0 0 0 0 0 0 0 0 0 0 0 4 165 176 155 309 288 374 375 293 310 331 239 166 184 217 191 198 128 131 316 591 262 161 670 945 921 816 1051
0 0 0 0 0 0 0 0 0 0 0 0 0 0 0 0 0 34 187 139 211 378 365 345 391 304 293 321 149 121 167 223 272 145 110 43 242 635 464 229 607 1253 1010 963
0 0 0 0 0 0 0 0 0 0 0 0 0 0 0 0 0 36 132 144 71 346 431 459 396 356 306 243 170 88 70 157 346 333 158 63 16 183 792 335 265 808 1220 1094
0 0 0 0 0 0 0 0 0 0 0 0 0 0 0 0 4 135 244 59 51 226 335 430 516 449 386 274 176 163 246 146 140 388 345 151 20 30 480 804 255 223 635 911
0 0 0 0 0 0 0 0 0 0 0 0 0 0 0 0 9 149 228 184 189 119 233 327 267 265 359 356 319 244 244 398 265 377 385 394 166 0 94 503 755 431 394 788
0 0 0 0 0 0 0 0 0 0 0 0 0 0 0 0 0 0 259 140 134 192 289 299 165 62 7 29 214 363 370 484 490 477 458 516 552 230 7 159 353 660 454 350
0 0 0 0 0 0 0 0 0 0 0 0 0 0 0 0 0 9 47 211 217 191 180 141 79 40 29 29 0 391 455 521 687 640 672 450 744 696 349 81 153 173 496 360
0 0 0 0 0 0 0 0 0 0 0 0 0 0 0 0 88 33 102 105 66 216 199 190 122 340 357 179 157 204 467 513 755 808 839 812 567 873 832 627 374 65 18 517
0 0 0 0 0 0 0 0 0 0 0 0 0 0 0 0 11 0 0 14 23 39 74 177 186 285 349 290 166 79 292 685 631 1053 1079 1117 1050 858 899 976 849 698 451 17
0 0 0 0 0 0 0 0 0 0 4 0 0 0 0 0 7 3 0 0 0 1 83 59 146 200 263 145 98 151 126 494 784 788 1122 1526 1457 1339 1134 1039 1177 1118 981 875
0 0 0 0 0 0 0 0 0 16 14 6 0 0 0 0 37 0 0 0 0 0 21 47 0 125 181 185 166 246 284 378 628 750 929 1019 1750 1652 1502 1406 1308 1266 1231 1162
0 0 0 0 0 0 0 29 84 29 48 1 0 1 0 0 5 0 0 0 0 0 0 0 1 0 54 29 20 335 233 502 553 929 1024 1003 1033 1554 1689 1630 1543 1447 1364 1263
0 0 0 0 0 0 0 0 87 24 0 0 0 0 0 0 0 0 0 0 1 0 0 0 0 0 0 0 0 176 290 190 156 487 520 807 930 1365 1550 1654 1599 1520 1496 1391
0 0 0 0 0 0 0 0 8 0 0 0 0 0 0 0 0 0 0 0 0 0 0 0 0 0 1 0 0 13 262 231 123 179 112 457 1006 1485 1753 1590 1581 1467 1431 1518
0 0 0 0 0 1 0 0 0 0 0 0 0 0 0 0 0 0 0 0 0 0 0 0 0 0 0 0 0 0 0 5 198 150 239 323 865 1471 1663 1805 1515 1540 1453 1464
0 0 0 0 0 0 0 0 0 0 0 0 0 0 0 0 0 0 0 0 0 0 0 0 0 0 0 0 0 0 0 0 0 134 353 707 939 1381 1835 1804 1790 1682 1488 1420
0 0 0 0 0 0 0 0 0 0 0 0 0 0 0 0 5 0 0 0 0 0 0 0 0 0 0 0 0 0 0 0 0 10 199 915 1455 1462 2125 1772 1875 1883 1721 1568
0 0 0 0 0 0 0 0 0 0 0 0 0 0 0 0 0 0 0 0 0 0 7 0 0 0 0 0 0 0 0 0 0 25 160 770 1722 1888 2279 2407 2051 2003 2063 1919
CIN
-0 -0 -0 -0 -0 -0 -0 -0 -0 -0 -0 -0 -88 -187 -192 -140 -207 -86 -119 -49 -9 -38 -16 -21 -32 -105 -73 -37 -61 -54 -40 -45 -80 -37 -38 -22 -29 -32 -39 -37 -27 -33 -23 -76
-0 -0 -0 -0 -0 -0 -0 -0 -0 -0 -0 -121 -172 -150 -71 -165 -172 -159 -181 -158 -72 -27 -15 -10 -34 -16 -41 -0 -0 -0 -70 -57 -106 -71 -83 -36 -25 -26 -51 -61 -61 -41 -26 -33
-0 -0 -0 -0 -0 -0 -0 -0 -0 -0 -59 -85 -91 -35 -60 -94 -84 -45 -113 -195 -179 -111 -43 -11 -14 -26 -27 -14 -7 -0 -149 -69 -100 -87 -85 -24 -23 -36 -21 -23 -33 -40 -44 -14
-0 -0 -0 -0 -0 -0 -0 -0 -0 -0 -0 -0 -24 -17 -26 -56 -151 -73 -123 -280 -213 -119 -71 -28 -3 -5 -21 -23 -6 -163 -158 -127 -105 -67 -72 -50 -40 -32 -49 -38 -47 -37 -33 -13
-0 -0 -0 -0 -0 -0 -0 -0 -0 -0 -0 -0 -6 -0 -8 -129 -100 -198 -173 -320 -268 -189 -133 -65 -19 -16 -38 -6 -14 -211 -175 -168 -103 -41 -75 -59 -49 -13 -32 -64 -66 -66 -24 -20
-0 -0 -0 -0 -0 -0 -0 -0 -0 -0 -0 -0 -0 -0 -0 -185 -219 -172 -164 -217 -215 -205 -182 -110 -54 -23 -30 -27 -11 -195 -178 -172 -130 -62 -49 -120 -66 -55 -62 -38 -64 -48 -52 -30
-0 -0 -0 -0 -0 -0 -0 -0 -0 -0 -0 -0 -0 -0 -0 -22 -194 -129 -321 -221 -207 -102 -126 -95 -42 -90 -11 -41 -47 -245 -190 -174 -145 -106 -92 -153 -120 -74 -66 -54 -61 -38 -46 -69
-0 -0 -0 -0 -0 -0 -0 -0 -0 -0 -0 -0 -0 -0 -0 -0 -282 -198 -137 -302 -198 -88 -100 -80 -74 -73 -42 -57 -56 -63 -241 -209 -145 -117 -83 -101 -99 -122 -124 -33 -20 -40 -43 -55
-0 -0 -0 -0 -0 -0 -0 -0 -0 -0 -0 -0 -0 -0 -0 -0 -142 -243 -242 -253 -185 -315 -142 -96 -72 -112 -97 -40 -46 -62 -311 -263 -202 -169 -148 -105 -101 -135 -142 -64 -56 -66 -54 -50
-0 -0 -0 -0 -0 -0 -0 -0 -0 -0 -0 -0 -0 -0 -0 -0 -0 -248 -173 -152 -352 -380 -146 -148 -111 -269 -134 -122 -66 -42 -27 -276 -279 -195 -121 -142 -108 -129 -94 -160 -20 -31 -46 -61
-0 -0 -0 -0 -0 -0 -0 -0 -0 -0 -0 -0 -0 -0 -0 -0 -0 -180 -183 -141 -163 -294 -172 -145 -130 -52 -103 -176 -178 -248 -87 -39 -243 -222 -172 -149 -193 -117 -101 -76 -108 -14 -26 -24
-0 -0 -0 -0 -0 -0 -0 -0 -0 -0 -0 -0 -0 -0 -0 -0 -67 -120 -146 -156 -327 -308 -181 -71 -80 -155 -147 -236 -278 -309 -309 -272 -274 -220 -185 -175 -180 -187 -120 -86 -134 -141 -15 -10
-0 -0 -0 -0 -0 -0 -0 -0 -0 -0 -0 -0 -0 -0 -0 -0 -144 -81 -101 -166 -212 -256 -171 -58 -161 -170 -170 -200 -157 -175 -307 -316 -295 -239 -203 -190 -160 -0 -208 -118 -93 -89 -140 -44
-0 -0 -0 -0 -0 -0 -0 -0 -0 -0 -0 -0 -0 -0 -0 -0 -0 -0 -39 -165 -235 -207 -116 -44 -41 -419 -237 -220 -147 -141 -216 -287 -262 -266 -197 -178 -194 -163 -38 -197 -121 -104 -78 -146
-0 -0 -0 -0 -0 -0 -0 -0 -0 -0 -0 -0 -0 -0 -0 -0 -0 -159 -168 -99 -158 -148 -63 -176 -232 -425 -93 -422 -279 -74 -74 -159 -247 -263 -216 -173 -161 -172 -138 -95 -209 -183 -132 -133
-0 -0 -0 -0 -0 -0 -0 -0 -0 -0 -0 -0 -0 -0 -0 -0 -26 -91 -109 -168 -159 -9 -60 -96 -126 -168 -249 -278 -196 -209 -48 -74 -150 -243 -209 -166 -170 -142 -152 -138 -120 -260 -311 -160
-0 -0 -0 -0 -0 -0 -0 -0 -0 -0 -0 -0 -0 -0 -0 -0 -5 -0 -0 -192 -102 -36 -36 -52 -105 -121 -142 -146 -125 -141 -60 -48 -125 -122 -133 -113 -97 -146 -133 -117 -107 -108 -128 -63
-0 -0 -0 -0 -0 -0 -0 -0 -0 -0 -8 -0 -0 -0 -0 -0 -1 -3 -0 -0 -0 -12 -6 -45 -51 -12 -8 -122 -131 -143 -101 -80 -69 -75 -111 -89 -49 -70 -122 -84 -105 -103 -86 -82
-0 -0 -0 -0 -0 -0 -0 -0 -0 -28 -43 -18 -1 -0 -0 -0 -49 -0 -0 -0 -0 -0 -22 -21 -0 -24 -16 -26 -35 -147 -71 -174 -147 -120 -93 -27 -6 -34 -66 -71 -73 -107 -107 -87
-0 -0 -0 -0 -0 -0 -0 -53 -32 -22 -17 -27 -0 -3 -0 -0 -8 -0 -0 -0 -0 -0 -0 -0 -7 -0 -24 -58 -11 -89 -137 -149 -160 -101 -112 -64 -35 -10 -42 -73 -71 -89 -101 -118
-0 -0 -0 -0 -0 -0 -0 -0 -44 -13 -0 -0 -0 -0 -0 -0 -0 -0 -0 -0 -0 -0 -0 -0 -0 -0 -0 -0 -0 -77 -160 -116 -354 -176 -154 -116 -71 -44 -45 -70 -81 -77 -112 -103
-0 -0 -0 -0 -0 -0 -0 -0 -14 -0 -0 -0 -0 -0 -0 -0 -0 -0 -0 -0 -0 -0 -0 -0 -0 -0 -0 -3 -0 -9 -99 -141 -173 -337 -298 -142 -42 -59 -28 -67 -86 -90 -91 -106
-0 -0 -0 -0 -0 -2 -0 -0 -0 -0 -0 -0 -0 -0 -0 -0 -0 -0 -0 -0 -0 -0 -0 -0 -0 -0 -0 -0 -0 -0 -0 -17 -180 -253 -83 -156 -57 -83 -61 -41 -104 -84 -90 -104
-0 -0 -0 -0 -0 -0 -0 -0 -0 -0 -0 -0 -0 -0 -0 -0 -0 -0 -0 -0 -0 -0 -0 -0 -0 -0 -0 -0 -0 -0 -0 -0 -55 -264 -269 -169 -154 -74 -82 -64 -20 -8 -106 -120
-0 -0 -0 -0 -0 -0 -0 -0 -0 -0 -0 -0 -0 -0 -0 -0 -0 -0 -0 -0 -0 -0 -0 -0 -0 -0 -0 -0 -0 -0 -0 -0 -0 -475 -338 -202 -129 -92 -55 -43 -43 -28 -30 -128
-0 -0 -0 -0 -0 -0 -0 -0 -0 -0 -0 -0 -0 -0 -0 -0 -0 -0 -0 -0 -0 -0 -3 -0 -0 -0 -0 -0 -0 -0 -0 -89 -0 -498 -342 -140 -59 -62 -62 -44 -82 -86 -35 -25
Wind_Speed
nan nan nan nan nan nan nan nan nan nan nan nan 9 16 17 19 13 14 6 3 nan nan 10 nan nan nan nan nan nan 4 3 7 7 10 8 6 5 7 6 3 4 5 4 7
nan nan nan nan nan nan nan nan nan nan nan nan 18 7 12 19 18 19 19 10 7 3 9 9 nan nan nan nan nan nan 1 7 5 7 7 7 6 7 5 5 5 6 4 8
nan nan nan nan nan nan nan nan nan nan nan 31 31 22 17 18 16 14 16 28 9 7 nan 10 2 1 nan nan nan nan 2 8 7 4 7 8 8 6 7 8 8 7 8 10
nan nan nan nan nan nan nan nan nan nan nan nan 23 20 13 19 17 13 16 nan nan 5 4 7 5 1 4 nan nan nan 5 9 11 6 8 7 6 3 8 7 6 9 7 7
nan nan nan nan nan nan nan nan nan nan nan nan nan nan nan nan 13 13 18 24 10 4 7 7 2 4 2 6 nan 7 7 9 12 7 7 7 7 5 7 7 5 5 7 5
nan nan nan nan nan nan nan nan nan nan nan nan nan nan nan nan nan nan 17 13 8 3 8 5 5 2 3 6 9 8 6 7 14 11 10 7 6 7 7 4 6 6 7 5
nan nan nan nan nan nan nan nan nan nan nan nan nan nan nan nan 12 23 25 22 2 2 0 6 7 11 6 6 5 8 6 5 11 12 10 nan 9 9 7 5 4 6 10 9
nan nan nan nan nan nan nan nan nan nan nan nan nan nan nan nan 8 13 17 27 17 6 11 13 7 3 4 3 4 8 7 6 7 11 11 12 11 14 13 9 6 6 8 7
nan nan nan nan nan nan nan nan nan nan nan nan nan nan nan nan nan 11 20 28 27 22 19 21 22 9 11 9 1 2 9 8 8 9 14 13 12 11 12 12 12 9 8 10
nan nan nan nan nan nan nan nan nan nan nan nan nan nan nan nan nan nan 18 5 10 16 18 20 25 27 22 16 14 11 12 10 11 11 13 nan 14 16 14 13 12 11 9 9
nan nan nan nan nan nan nan nan nan nan nan nan nan nan nan nan nan nan 29 15 nan 2 9 17 26 29 31 24 16 nan nan 10 14 11 12 nan nan 16 18 15 14 13 13 10
nan nan nan nan nan nan nan nan nan nan nan nan nan nan nan nan nan 47 53 nan nan 15 8 6 22 24 25 25 24 13 9 7 10 15 14 12 nan nan 18 17 15 14 13 14
nan nan nan nan nan nan nan nan nan nan nan nan nan nan nan nan nan 48 49 40 27 26 17 10 2 14 30 31 36 23 12 9 10 13 15 14 14 nan nan 14 17 17 14 15
nan nan nan nan nan nan nan nan nan nan nan nan nan nan nan nan nan nan 50 56 33 20 23 30 25 nan nan nan 39 25 19 15 13 11 14 16 13 12 nan 15 18 20 18 16
nan nan nan nan nan nan nan nan nan nan nan nan nan nan nan nan nan nan nan 47 56 51 50 49 nan nan nan nan nan 39 36 20 14 10 12 12 18 18 18 nan 16 18 19 15
nan nan nan nan nan nan nan nan nan nan nan nan nan nan nan nan nan nan 58 44 nan 46 53 47 42 29 24 26 30 34 42 34 20 9 8 11 12 19 18 17 16 nan nan 16
nan nan nan nan nan nan nan nan nan nan nan nan nan nan nan nan nan nan nan nan nan nan nan 44 52 53 44 44 41 nan 35 31 31 21 10 10 11 12 17 20 18 16 15 nan
nan nan nan nan nan nan nan nan nan nan nan nan nan nan nan nan nan nan nan nan nan nan nan nan 38 30 55 48 nan 50 40 34 33 27 17 12 12 13 15 19 18 17 19 17
nan nan nan nan nan nan nan nan nan nan nan nan nan nan nan nan nan nan nan nan nan nan nan nan nan 50 42 46 50 49 45 50 45 42 40 36 15 11 14 14 16 19 21 20
nan nan nan nan nan nan nan nan nan nan nan nan nan nan nan nan nan nan nan nan nan nan nan nan nan nan nan nan nan 33 45 54 38 36 42 36 33 15 8 11 15 18 20 21
nan nan nan nan nan nan nan nan nan nan nan nan nan nan nan nan nan nan nan nan nan nan nan nan nan nan nan nan nan 45 42 35 43 51 56 42 33 21 10 11 19 17 19 22
nan nan nan nan nan nan nan nan nan nan nan nan nan nan nan nan nan nan nan nan nan nan nan nan nan nan nan nan nan nan 55 42 46 51 37 35 33 25 12 10 17 17 19 19
nan nan nan nan nan nan nan nan nan nan nan nan nan nan nan nan nan nan nan nan nan nan nan nan nan nan nan nan nan nan nan nan 38 29 36 43 43 36 14 9 10 18 18 21
nan nan nan nan nan nan nan nan nan nan nan nan nan nan nan nan nan nan nan nan nan nan nan nan nan nan nan nan nan nan nan nan nan 41 40 44 40 26 23 19 15 15 18 21
nan nan nan nan nan nan nan nan nan nan nan nan nan nan nan nan nan nan nan nan nan nan nan nan nan nan nan nan nan nan nan nan nan nan 46 59 49 47 34 26 22 17 16 20
nan nan nan nan nan nan nan nan nan nan nan nan nan nan nan nan nan nan nan nan nan nan nan nan nan nan nan nan nan nan nan nan nan nan 58 42 42 48 37 32 36 42 34 18
Wind_Direction
nan nan nan nan nan nan nan nan nan nan nan nan 317 293 325 324 330 337 306 307 nan nan 136 nan nan nan nan nan nan 297 229 159 180 170 176 191 153 126 119 63 58 84 22 85
nan nan nan nan nan nan nan nan nan nan nan nan 248 282 298 307 314 338 319 277 317 335 101 153 nan nan nan nan nan nan 275 188 178 184 164 180 175 129 119 101 124 100 113 90
nan nan nan nan nan nan nan nan nan nan nan 223 248 237 243 248 289 324 331 342 233 21 nan 141 141 173 nan nan nan nan 219 192 187 192 168 181 183 178 149 126 124 101 88 86
nan nan nan nan nan nan nan nan nan nan nan nan 235 241 254 273 270 329 355 nan nan 195 343 137 140 101 331 nan nan nan 228 202 182 199 177 190 198 162 112 108 129 123 95 82
nan nan nan nan nan nan nan nan nan nan nan nan nan nan nan nan 294 352 357 8 96 104 360 20 123 95 256 249 nan 243 235 215 184 187 185 170 199 165 136 134 109 128 112 84
nan nan nan nan nan nan nan nan nan nan nan nan nan nan nan nan nan nan 1 3 98 57 11 3 264 279 264 263 226 244 250 229 202 183 191 178 163 167 170 131 135 167 154 161
nan nan nan nan nan nan nan nan nan nan nan nan nan nan nan nan 268 317 348 351 82 135 8 303 284 308 324 344 284 242 258 246 222 191 178 nan 154 175 181 177 152 164 181 178
nan nan nan nan nan nan nan nan nan nan nan nan nan nan nan nan 253 286 320 311 326 211 268 271 274 276 298 343 316 250 252 233 230 213 184 189 174 180 198 189 181 167 177 158
nan nan nan nan nan nan nan nan nan nan nan nan nan nan nan nan nan 203 268 280 299 298 311 297 243 233 272 267 242 270 243 236 224 206 208 189 185 191 202 190 194 186 180 183
nan nan nan nan nan nan nan nan nan nan nan nan nan nan nan nan nan nan 199 104 309 305 295 295 284 260 240 264 236 196 200 226 231 212 199 nan 183 190 203 217 200 200 199 209
nan nan nan nan nan nan nan nan nan nan nan nan nan nan nan nan nan nan 176 190 nan 269 355 308 287 249 242 241 266 nan nan 211 222 224 210 nan nan 188 202 214 214 207 215 224
nan nan nan nan nan nan nan nan nan nan nan nan nan nan nan nan nan 202 205 nan nan 200 241 242 328 316 268 241 238 263 255 235 225 212 212 208 nan nan 197 202 214 220 218 232
nan nan nan nan nan nan nan nan nan nan nan nan nan nan nan nan nan 212 199 197 207 217 218 202 166 261 217 220 252 232 260 257 247 232 209 215 206 nan nan 194 205 213 217 228
nan nan nan nan nan nan nan nan nan nan nan nan nan nan nan nan nan nan 213 210 209 225 219 202 200 nan nan nan 198 204 249 245 232 238 220 201 220 207 nan 205 209 216 209 215
nan nan nan nan nan nan nan nan nan nan nan nan nan nan nan nan nan nan nan 224 215 220 222 210 nan nan nan nan nan 219 199 223 227 218 227 196 205 213 214 nan 208 219 224 212
nan nan nan nan nan nan nan nan nan nan nan nan nan nan nan nan nan nan 223 215 nan 220 222 218 216 207 181 180 176 208 198 204 206 197 191 210 202 218 217 222 218 nan nan 230
nan nan nan nan nan nan nan nan nan nan nan nan nan nan nan nan nan nan nan nan nan nan nan 222 221 219 213 208 207 nan 205 205 209 195 187 197 197 203 215 217 223 225 226 nan
nan nan nan nan nan nan nan nan nan nan nan nan nan nan nan nan nan nan nan nan nan nan nan nan 233 216 199 205 nan 204 207 212 209 195 195 197 206 196 204 206 214 224 231 233
nan nan nan nan nan nan nan nan nan nan nan nan nan nan nan nan nan nan nan nan nan nan nan nan nan 213 186 190 196 198 215 209 224 210 205 192 184 195 211 203 199 213 229 231
nan nan nan nan nan nan nan nan nan nan nan nan nan nan nan nan nan nan nan nan nan nan nan nan nan nan nan nan nan 196 217 205 222 213 209 202 179 170 171 200 201 207 219 225
nan nan nan nan nan nan nan nan nan nan nan nan nan nan nan nan nan nan nan nan nan nan nan nan nan nan nan nan nan 207 220 229 214 225 228 202 179 154 144 180 205 203 218 225
nan nan nan nan nan nan nan nan nan nan nan nan nan nan nan nan nan nan nan nan nan nan nan nan nan nan nan nan nan nan 223 237 225 233 207 196 181 174 197 207 207 202 215 225
nan nan nan nan nan nan nan nan nan nan nan nan nan nan nan nan nan nan nan nan nan nan nan nan nan nan nan nan nan nan nan nan 189 195 193 188 192 183 180 229 236 208 216 224
nan nan nan nan nan nan nan nan nan nan nan nan nan nan nan nan nan nan nan nan nan nan nan nan nan nan nan nan nan nan nan nan nan 192 193 195 203 194 193 211 233 237 221 218
nan nan nan nan nan nan nan nan nan nan nan nan nan nan nan nan nan nan nan nan nan nan nan nan nan nan nan nan nan nan nan nan nan nan 222 204 199 196 207 207 224 229 230 227
nan nan nan nan nan nan nan nan nan nan nan nan nan nan nan nan nan nan nan nan nan nan nan nan nan nan nan nan nan nan nan nan nan nan 201 215 214 208 214 225 215 219 220 221